Location: Unspecified
(40.7945°N, 111.1337°W)
Time: 16:23:13
(UTC-06:00)

Resurs 1-4 Rocket - Pass Details

Date: 27 March 2019
Orbit: 799 x 815 km, 98.6° (Epoch: 24 April)

Event Time Altitude Azimuth Distance (km) Brightness Sun altitude
Rises 03:50:55 0° 6° (N) 3,328 5.9 -36.1°
Reaches altitude 10° 03:53:21 10° 360° (N) 2,390 5.0 -35.7°
Enters shadow 03:55:03 20° 351° (N) 1,785 4.1 -35.5°
